Lid_Strength_Index
4 5 4 4 5 5 5 4 8 0 0 5 5 6 5 6 5 5 6 5 6 6 6 7 7 7 6 4 4 6 5 6 8 8 5 5 5 6 7 9 11 9 9 9
4 4 5 4 5 5 5 5 5 -0 1 7 7 5 6 5 5 6 7 6 5 5 6 7 6 6 4 4 5 5 5 7 9 9 7 6 7 6 6 6 7 9 11 9
3 3 5 4 5 5 5 4 6 4 3 4 6 6 6 6 5 5 6 6 5 6 6 5 6 6 5 4 4 4 4 6 8 10 8 7 8 7 6 7 9 9 9 8
2 2 3 4 5 6 5 3 6 5 6 6 6 6 6 7 7 5 5 5 6 6 7 6 7 6 6 5 7 5 5 8 7 7 6 6 7 7 7 7 7 9 8 8
2 2 2 5 5 6 5 6 6 3 4 6 6 8 7 7 7 6 6 7 6 6 7 7 7 6 6 6 5 5 5 8 7 8 7 7 8 7 7 7 7 7 7 7
2 2 2 2 3 6 5 5 5 6 8 6 6 7 7 7 6 6 5 6 6 6 6 5 5 5 5 5 6 6 6 8 9 9 7 8 9 7 7 7 6 6 8 6
3 2 2 2 2 3 6 5 5 7 8 5 7 7 7 7 6 7 5 5 6 5 3 4 4 4 5 5 5 5 7 7 7 9 9 13 7 5 5 7 6 5 5 5
4 3 2 2 2 3 4 5 5 6 9 8 8 8 8 7 5 6 6 5 4 3 4 7 8 8 7 6 6 6 6 7 9 11 11 8 8 7 7 7 7 5 5 4
4 3 2 2 3 3 3 4 5 5 7 9 8 8 8 7 7 6 5 3 3 4 5 7 10 10 8 9 8 6 6 6 8 9 11 12 7 5 4 5 9 4 5 4
4 4 3 2 3 3 3 4 4 5 7 6 6 8 8 6 7 7 5 6 5 4 6 8 9 9 7 10 10 9 9 8 9 9 10 8 6 5 4 10 8 4 4 4
3 3 3 3 2 3 4 4 3 6 7 6 7 7 8 7 6 8 6 6 6 6 8 8 8 9 8 8 8 9 9 10 9 9 10 12 5 5 7 6 4 4 3 3
2 2 2 3 3 3 3 5 3 3 6 6 4 5 5 6 6 6 6 6 7 5 7 6 7 8 7 8 10 6 9 8 9 8 8 5 4 5 4 3 4 4 4 4
2 2 2 1 2 2 3 4 3 4 6 6 6 6 4 3 5 5 7 5 4 5 4 5 6 9 7 9 8 8 7 6 7 8 6 5 5 4 3 3 4 3 3 3
2 2 2 1 1 1 2 3 3 4 5 8 7 4 6 4 3 5 5 5 4 4 4 5 6 7 5 7 7 8 6 6 7 7 6 5 4 4 3 3 3 3 3 3
2 2 2 1 1 1 2 1 1 2 5 7 6 5 4 4 4 4 4 5 5 5 6 6 7 4 6 5 6 7 5 6 7 8 5 5 5 3 3 3 3 3 3 3
2 2 2 2 1 2 2 5 2 0 2 5 7 4 5 3 3 4 5 4 5 5 6 6 5 5 5 7 8 5 5 4 4 5 4 4 3 3 2 3 3 3 3 2
2 2 2 2 1 2 4 4 2 2 2 5 7 6 4 4 3 4 4 4 5 5 5 6 6 5 6 8 9 6 5 4 3 4 5 5 5 5 4 3 2 2 2 2
2 2 2 1 1 2 3 2 2 2 3 4 7 6 6 4 4 5 2 5 5 5 6 5 6 5 6 9 5 4 4 4 4 4 4 4 3 3 5 4 3 3 3 2
2 2 2 1 2 4 3 2 2 1 3 6 6 7 8 4 4 4 4 3 6 4 7 6 5 6 8 6 5 4 4 4 3 3 3 3 3 3 3 2 3 3 3 2
1 1 3 5 3 2 1 2 4 4 4 4 7 5 7 5 4 6 6 5 5 8 6 3 6 7 4 3 3 3 3 3 3 4 5 4 4 3 3 3 2 2 2 2
1 4 4 1 1 1 3 6 6 5 7 5 5 5 6 3 6 5 4 5 5 8 7 7 7 7 5 4 4 3 3 3 3 3 3 3 3 3 3 3 2 2 2 2
1 1 0 -0 2 4 7 7 6 7 7 6 6 5 3 4 2 5 5 7 6 10 5 8 9 7 5 4 4 3 3 2 3 2 2 2 2 3 3 2 2 2 2 2
1 3 4 4 7 10 11 11 9 8 6 5 5 7 4 4 4 5 6 9 8 5 8 9 6 6 5 4 3 3 2 2 2 3 2 2 2 2 2 2 2 2 2 2
5 7 11 8 10 8 7 6 5 5 4 5 5 5 5 4 6 5 10 6 6 10 11 10 6 6 5 4 3 3 4 3 3 3 3 3 2 2 2 2 2 2 3 2
6 6 10 8 4 3 3 3 4 4 3 4 5 4 5 5 7 6 7 10 12 10 9 7 6 5 4 4 4 4 3 3 3 3 3 3 3 3 3 2 2 2 2 2
5 6 7 4 6 5 5 5 5 3 3 3 3 6 8 9 7 10 10 10 11 8 8 7 7 6 5 5 4 3 3 4 4 3 3 3 3 3 3 2 2 2 2 2
6 6 4 4 4 4 4 4 4 2 4 7 6 10 10 6 9 10 7 9 9 8 7 6 6 6 5 4 4 4 4 3 3 2 2 2 2 2 2 3 2 2 2 2